Location: Chochol
(49.7771°N, 14.9780°E)
Time: 16:42:17
(UTC+00:00)

Meteor 1-16 Rocket - Pass Details

Date: 09 April 2020
Orbit: 790 x 907 km, 81.2° (Epoch: 02 June)

Event Time Altitude Azimuth Distance (km) Brightness Sun altitude
Rises 18:31:24 0° 193° (SSW) 3,317 7.2 -8.0°
Reaches altitude 10° 18:33:45 10° 194° (SSW) 2,403 6.5 -8.3°
Maximum altitude 18:39:12 82° 282° (WNW) 849 4.3 -9.1°
Drops below altitude 10° 18:44:53 10° 11° (N) 2,498 6.8 -10.0°
Sets 18:47:21 0° 12° (NNE) 3,457 7.6 -10.3°
